Sion, Switzerland

10:48 PM CEST on July 23, 2016 (GMT +0200)
Sion

Weather History for LSGS - August, 2014

Change the Weather History Date:

Wednesday, August 13, 2014

  Actual Average Record
Temperature  
Mean Temperature 66 °F -  
Max Temperature 73 °F 37 °F - ()
Min Temperature 58 °F 28 °F - ()
Cooling Degree Days 1    
Growing Degree Days 16 (Base 50)    
Moisture  
Dew Point 55 °F    
Average Humidity 75    
Maximum Humidity 96    
Minimum Humidity 31    
Precipitation  
Precipitation 0.12 in - - ()
Sea Level Pressure  
Sea Level Pressure 29.80 in    
Wind  
Wind Speed 5 mph ()    
Max Wind Speed 22 mph    
Max Gust Speed 36 mph    
Visibility 7.7 miles    
Events Rain    
T = Trace of Precipitation, MM = Missing Value Source: Averaged Metar Reports

Daily Weather History Graph

Daily Weather History Graph

Search for Another Location

Airport or City:

Trip Planner

Search our weather history database for the weather conditions in past years. The results will help you decide how hot, cold, wet, or windy it might be!

Date:

Astronomy

Aug. 13, 2014 Rise Set
Actual Time 6:26 AM CEST 8:43 PM CEST
Civil Twilight 5:53 AM CEST 9:16 PM CEST
Nautical Twilight 5:12 AM CEST 9:57 PM CEST
Astronomical Twilight 4:26 AM CEST 10:43 PM CEST
Moon 10:03 PM CEST (8/13) 9:49 AM CEST (8/13)
Length of Visible Light 15h 22m
Length of Day
14h 16m
Waning Gibbous, 90% of the Moon is Illuminated
Aug 13
Waning Gibbous
Aug 17
Last Quarter
Aug 25
New
Sep 2
First Quarter
Sep 9
Full

Hourly Weather History & Observations

Time (CEST) Temp. Dew Point Humidity Pressure Visibility Wind Dir Wind Speed Gust Speed Precip Events Conditions
12:00 AM 61 °F 57 °F 83% 29.91 in - East 3.5 mph - -  
1:00 AM 61 °F 58 °F 85% 29.89 in - East 3.5 mph - -  
2:00 AM 60 °F 58 °F 91% 29.88 in 12 mi ESE 2.3 mph - -   Overcast
3:00 AM 61 °F 57 °F 82% 29.84 in - East 4.6 mph - -  
4:00 AM 60 °F 58 °F 90% 29.82 in - East 3.5 mph - -  
5:00 AM 60 °F 57 °F 87% 29.81 in 9 mi NE 2.3 mph - - Rain Light Rain
6:00 AM 60 °F 59 °F 94% 29.81 in - ESE 3.5 mph - -  
6:50 AM 59.0 °F 57.2 °F 94% 29.83 in 6.2 mi Variable 1.2 mph - N/A Rain Light Rain
7:00 AM 59 °F 58 °F 96% 29.81 in - ESE 1.2 mph - -  
7:20 AM 59.0 °F 57.2 °F 94% 29.80 in 6.2 mi Variable 1.2 mph - N/A Rain Rain
7:50 AM 59.0 °F 57.2 °F 94% 29.80 in 6.2 mi Variable 3.5 mph - N/A Rain Rain
8:00 AM 59 °F 58 °F 96% 29.78 in 9 mi SSE 1.2 mph - - Rain Rain
8:20 AM 59.0 °F 57.2 °F 94% 29.77 in 6.2 mi Variable 2.3 mph - N/A Rain Light Rain
8:50 AM 59.0 °F 57.2 °F 94% 29.74 in 6.2 mi East 6.9 mph - N/A Rain Light Rain
9:00 AM 60 °F 58 °F 92% 29.73 in - ENE 3.5 mph - -  
9:20 AM 59.0 °F 57.2 °F 94% 29.74 in 6.2 mi East 5.8 mph - N/A Rain Light Rain
9:50 AM 59.0 °F 57.2 °F 94% 29.74 in 6.2 mi ENE 4.6 mph - N/A   Overcast
10:00 AM 60 °F 58 °F 91% 29.72 in - SSW 2.3 mph - -  
10:20 AM 60.8 °F 57.2 °F 88% 29.74 in 6.2 mi Variable 1.2 mph - N/A   Overcast
10:50 AM 60.8 °F 57.2 °F 88% 29.74 in 6.2 mi SW 5.8 mph - N/A Rain Light Rain
11:00 AM 61 °F 59 °F 92% 29.74 in 9 mi WSW 2.3 mph - - Rain Light Rain
11:20 AM 60.8 °F 59.0 °F 94% 29.74 in 6.2 mi WNW 4.6 mph - N/A   Mostly Cloudy
11:50 AM 62.6 °F 57.2 °F 82% 29.74 in 6.2 mi Variable 2.3 mph - N/A   Overcast
12:00 PM 62 °F 58 °F 84% 29.74 in - WSW 3.5 mph - -  
12:20 PM 62.6 °F 59.0 °F 88% 29.74 in 5.6 mi WSW 4.6 mph - N/A Rain Rain
12:50 PM 62.6 °F 57.2 °F 82% 29.77 in 5.6 mi WSW 5.8 mph - N/A Rain Rain
1:00 PM 63 °F 59 °F 83% 29.73 in - West 5.8 mph - -  
1:20 PM 62.6 °F 57.2 °F 82% 29.74 in 6.2 mi Variable 3.5 mph - N/A   Mostly Cloudy
1:50 PM 62.6 °F 59.0 °F 88% 29.74 in 6.2 mi Variable 2.3 mph - N/A   Mostly Cloudy
2:00 PM 64 °F 59 °F 80% 29.71 in 9 mi ESE 2.3 mph - -   Partly Cloudy
2:50 PM 66.2 °F 59.0 °F 78% 29.77 in 6.2 mi WNW 4.6 mph - N/A   Scattered Clouds
3:00 PM 67 °F 62 °F 78% 29.72 in - WNW 5.8 mph - -  
3:20 PM 68.0 °F 55.4 °F 64% 29.74 in 6.2 mi WNW 8.1 mph - N/A   Scattered Clouds
4:00 PM 73 °F 55 °F 42% 29.70 in - WSW 15.0 mph - -  
4:20 PM 71.6 °F 46.4 °F 41% 29.77 in 6.2 mi WSW 20.7 mph 33.4 mph N/A   Scattered Clouds
5:00 PM 71 °F 48 °F 33% 29.75 in 19 mi WSW 21.9 mph - -   Mostly Cloudy
5:20 PM 69.8 °F 48.2 °F 46% 29.83 in 6.2 mi WSW 20.7 mph - N/A   Scattered Clouds
5:50 PM 68.0 °F 48.2 °F 49% 29.83 in 6.2 mi WSW 21.9 mph - N/A   Scattered Clouds
6:00 PM 71 °F 47 °F 31% 29.80 in - West 20.7 mph - -  
6:20 PM 68.0 °F 44.6 °F 43% 29.86 in 6.2 mi WSW 21.9 mph 35.7 mph N/A   Scattered Clouds
6:50 PM 66.2 °F 46.4 °F 49% 29.89 in 6.2 mi WSW 16.1 mph - N/A   Scattered Clouds
7:00 PM 67 °F 45 °F 33% 29.85 in - West 17.3 mph - -  
7:20 PM 64.4 °F 48.2 °F 56% 29.89 in 6.2 mi WSW 12.7 mph - N/A   Scattered Clouds
7:50 PM 62.6 °F 46.4 °F 55% 29.92 in 6.2 mi WSW 16.1 mph - N/A   Scattered Clouds
8:00 PM 64 °F 47 °F 43% 29.90 in 19 mi West 11.5 mph - -   Mostly Cloudy
9:00 PM 60 °F 48 °F 55% 29.93 in - SW 4.6 mph - -  
10:00 PM 59 °F 47 °F 56% 29.95 in - WSW 8.1 mph - -  
11:00 PM 58 °F 47 °F 59% 29.96 in 12 mi West 8.1 mph - -   Mostly Cloudy